Regional Weather Roundup
Issued by NWS

Home | Current Version | Previous Version | Graphics & Text | Print | Product List | Glossary On
Versions: 1 2 3 4 5 6 7 8 9 10 11 12 13 14 15 16 17 18 19 20 21 22 23 24 25 26 27 28 29 30 31 32 33 34 35 36 37 38 39 40 41 42 43 44 45 46 47 48 49 50
000
ASUS45 KPSR 311200
RWRAZ

PRELIMINARY ARIZONA REGIONAL HOURLY WEATHER ROUNDUP
NATIONAL WEATHER SERVICE PHOENIX AZ
500 AM MST SAT JAN 31 2015

NOTE: FAIR INDICATES FEW OR NO CLOUDS BELOW 12,000 FEET WITH NO
SIGNIFICANT WEATHER AND/OR OBSTRUCTIONS TO VISIBILITY.

AZZ001>003-036-311300-
NORTHWEST ARIZONA

CITY           SKY/WX    TMP DP  RH WIND       PRES   REMARKS
KINGMAN        CLOUDY    45  44  97 NE6       29.84S
6HR MIN TEMP:  45; 6HR MAX TEMP:  46;

$$

AZZ004>008-015-016-018-311300-
NORTH CENTRAL ARIZONA

CITY           SKY/WX    TMP DP  RH WIND       PRES   REMARKS
GRAND CANYON   LGT RAIN  37  36  96 CALM      29.87S
6HR MIN TEMP:  37; 6HR MAX TEMP:  38; 6HR PCP:  0.02;

PRESCOTT       CLOUDY    42  39  89 CALM      29.84S
6HR MIN TEMP:  39; 6HR MAX TEMP:  44; 6HR PCP:  0.01;

FLAGSTAFF      NOT AVBL
PAYSON         CLOUDY    43  43 100 CALM      29.87S FOG
$$

AZZ009>014-017-311300-
NORTHEAST ARIZONA

CITY           SKY/WX    TMP DP  RH WIND       PRES   REMARKS
WINSLOW        NOT AVBL
SAINT JOHNS    CLOUDY    40  38  93 E3        29.85F
6HR MIN TEMP:  40; 6HR MAX TEMP:  42; 6HR PCP:  0.15;

WINDOW ROCK    LGT SNOW  34  31  88 CALM      29.88S FOG
6HR MIN TEMP:  33; 6HR MAX TEMP:  35; 6HR PCP:  0.08;

SHOW LOW       CLOUDY    36  32  87 S9        29.88F WCI  29
$$

AZZ023-311300-
GREATER PHOENIX AREA

CITY           SKY/WX    TMP DP  RH WIND       PRES   REMARKS
PHOENIX        CLOUDY    56  53  90 E5        29.79S
6HR MIN TEMP:  56; 6HR MAX TEMP:  57;

LUKE AFB       CLOUDY    56  54  94 CALM      29.79S
DEER VALLEY    CLOUDY    54  53  97 CALM      29.79F
6HR MIN TEMP:  53; 6HR MAX TEMP:  54; 6HR PCP:  0.01;

SCOTTSDALE     CLOUDY    54  52  93 CALM      29.82S
6HR MIN TEMP:  54; 6HR MAX TEMP:  55; 6HR PCP:  0.01;

MESA-GATEWAY   CLOUDY    54  54 100 CALM      29.82S
$$

AZZ027-028-311300-
SOUTHWEST MARICOPA COUNTY AND PINAL COUNTY

CITY           SKY/WX    TMP DP  RH WIND       PRES   REMARKS
CASA GRANDE    CLOUDY    54  52  94 CALM      29.80S
6HR MIN TEMP:  54; 6HR MAX TEMP:  55;

$$

AZZ503-504-507>509-311300-
SOUTHEAST ARIZONA

CITY           SKY/WX    TMP DP  RH WIND       PRES   REMARKS
TUCSON         LGT RAIN  53  50  89 E5        29.82F
6HR MIN TEMP:  53; 6HR MAX TEMP:  54; 6HR PCP:  0.12;

DAVIS-MONTHAN  LGT RAIN  52  52 100 SE5       29.80S
6HR MIN TEMP:  52; 6HR MAX TEMP:  53; 6HR PCP:  0.21;

NOGALES        LGT RAIN  48  46  93 S6        29.84S
6HR MIN TEMP:  48; 6HR MAX TEMP:  50; 6HR PCP:  0.34;

SIERRA VISTA   LGT RAIN  45  44  97 SE5       29.84F
6HR MIN TEMP:  45; 6HR MAX TEMP:  47; 6HR PCP:  0.19;

SAFFORD        CLOUDY    47  45  93 SE7       29.84F
6HR MIN TEMP:  47; 6HR MAX TEMP:  47; 6HR PCP:  0.18;

$$

AZZ020-021-025-026-031-311300-
SOUTHWEST ARIZONA

CITY           SKY/WX    TMP DP  RH WIND       PRES   REMARKS
YUMA           NOT AVBL
$$

CAZ031-033-041-043-047-048-061-311300-
SOUTHERN CALIFORNIA

CITY           SKY/WX    TMP DP  RH WIND       PRES   REMARKS
DOWNTOWN L.A.  MOCLDY    59  55  87 E3        29.83F
6HR MIN TEMP:  59; 6HR MAX TEMP:  60;

L.A. AIRPORT   MOCLDY    57  56  96 CALM      29.84S
6HR MIN TEMP:  56; 6HR MAX TEMP:  59;

SAN DIEGO      MOCLDY    59  53  80 CALM      29.86F
6HR MIN TEMP:  59; 6HR MAX TEMP:  61; 6HR PCP:  0.01;

BURBANK        MOCLDY    53  50  89 CALM      29.83F
6HR MIN TEMP:  53; 6HR MAX TEMP:  56;

ONTARIO        CLOUDY    55  50  83 CALM      29.84F
6HR MIN TEMP:  54; 6HR MAX TEMP:  58;

RIVERSIDE      CLOUDY    53  50  89 CALM      29.85F
6HR MIN TEMP:  52; 6HR MAX TEMP:  56;

PALM SPRINGS   CLOUDY    60  48  64 W6        29.83F
6HR MIN TEMP:  57; 6HR MAX TEMP:  60;

EL CENTRO NAS  PTCLDY    52  49  89 SW3       29.79F
6HR MIN TEMP:  50; 6HR MAX TEMP:  56;

IMPERIAL       CLEAR     50  48  93 CALM      29.79F
6HR MIN TEMP:  50; 6HR MAX TEMP:  56;

BLYTHE         PTCLDY    53  51  93 NW7       29.81S
6HR MIN TEMP:  53; 6HR MAX TEMP:  59;

$$

NVZ020-UTZ003-311300-
SOUTHERN NEVADA-UTAH

CITY           SKY/WX    TMP DP  RH WIND       PRES   REMARKS
LAS VEGAS      NOT AVBL
SALT LAKE CITY MOCLDY    37  33  85 N3        29.96S
6HR MIN TEMP:  37; 6HR MAX TEMP:  41;

$$

NMZ009-TXZ055-311300-
NEW MEXICO-WEST TEXAS

CITY           SKY/WX    TMP DP  RH WIND       PRES   REMARKS
ALBUQUERQUE    CLOUDY    33  32  96 NW7       29.92F FOG     WCI  27
6HR MIN TEMP:  33; 6HR MAX TEMP:  36; 6HR PCP:  0.05;

EL PASO        CLOUDY    44  41  89 N5        29.90F
6HR MIN TEMP:  43; 6HR MAX TEMP:  45; 6HR PCP:  0.02;

$$


........................KEY........................
SKY/WX - SKY CONDITION/WEATHER
TMP    - TEMPERATURE IN FAHRENHEIT
DP     - DEW POINT IN FAHRENHEIT
RH     - RELATIVE HUMIDITY IN PERCENT
WIND   - DIRECTION AND SPEED IN MILES PER HOUR (MPH)
VRB    - VARIABLE WIND DIRECTION
PRES   - MEAN SEA LEVEL PRESSURE IN INCHES OF MERCURY
         F - FALLING PRESSURE   R - RISING PRESSURE
         S - STEADY PRESSURE
VSB    - VISIBILITY IN MILES
HX     - HEAT INDEX IN FAHRENHEIT
WCI    - WIND CHILL INDEX IN FAHRENHEIT
TC     - TEMPERATURE IN CELSIUS WHICH IS ALSO KNOWN AS
         TEMPERATURE IN CENTIGRADE
AFB    - AIR FORCE BASE
         LUKE AFB IS LUKE AIR FORCE BASE
         DAVIS-MONTHAN IS DAVIS-MONTHAN AIR FORCE BASE
NAS    - NAVAL AIR STATION
         EL CENTRO NAS IS EL CENTRO NAVAL AIR STATION
N/A    - NOT AVAILABLE


USA.gov is the U.S. government's official web portal to all federal, state and local government web resources and services.